Weather History for Texarkana, AR

Change the Weather History Date:

Friday, September 21, 2012

  Actual Average Record
Temperature  
Mean Temperature 75 °F 73 °F  
Max Temperature 90 °F 85 °F 101 °F (2005)
Min Temperature 60 °F 61 °F 42 °F (1918)
Degree Days  
Heating Degree Days 0 0  
Month to date heating degree days 0 0  
Since 1 July heating degree days 0 0  
Cooling Degree Days 10 8  
Month to date cooling degree days 277 243  
Year to date cooling degree days 2576 2031  
Growing Degree Days 25 (Base 50)    
Moisture  
Dew Point 57 °F    
Average Humidity 58    
Maximum Humidity 84    
Minimum Humidity 32    
Precipitation  
Precipitation 0.00 in 0.10 in 1.35 in (1957)
Month to date precipitation 1.12 2.37  
Year to date precipitation 23.75 33.79  
Snow  
Snow 0.00 in - - ()
Month to date snowfall 0.0  
Since 1 July snowfall 0.0  
Since 1 September snowfall 0.0  
Snow Depth 0.00 in    
Sea Level Pressure  
Sea Level Pressure 29.97 in    
Wind  
Wind Speed 8 mph (SSW)    
Max Wind Speed 15 mph    
Max Gust Speed 20 mph    
Visibility 10 miles    
Events      
T = Trace of Precipitation, MM = Missing Value Source: NWS Daily Summary

Daily Weather History Graph

Daily Weather History Graph

Search for Another Location

Airport:

Trip Planner

Search our weather history database for the weather conditions in past years. The results will help you decide how hot, cold, wet, or windy it might be!

Date:

Astronomy

Sep. 21, 2012 Rise Set
Actual Time 7:03 AM CDT 7:13 PM CDT
Civil Twilight 6:38 AM CDT 7:38 PM CDT
Nautical Twilight 6:09 AM CDT 8:07 PM CDT
Astronomical Twilight 5:40 AM CDT 8:36 PM CDT
Moon 1:07 PM CDT (9/21) 11:32 PM CDT (9/21)
Length of Visible Light 12h 59m
Length of Day
12h 09m
Waxing Crescent, 37% of the Moon is Illuminated
Sep 21
Waxing Crescent
Sep 22
First Quarter
Sep 29
Full
Oct 8
Last Quarter
Oct 15
New

Hourly Weather History & Observations

Time (CDT) Temp. Heat Index Dew Point Humidity Pressure Visibility Wind Dir Wind Speed Gust Speed Precip Events Conditions
12:53 AM 70.0 °F - 55.0 °F 59% 30.00 in 10.0 mi South 10.4 mph - N/A   Clear
1:53 AM 68.0 °F - 55.9 °F 65% 29.99 in 10.0 mi South 6.9 mph - N/A   Clear
2:53 AM 66.9 °F - 55.0 °F 66% 29.99 in 10.0 mi SSW 6.9 mph - N/A   Clear
3:53 AM 64.9 °F - 55.0 °F 70% 29.98 in 10.0 mi SSW 8.1 mph - N/A   Clear
4:53 AM 64.9 °F - 55.0 °F 70% 29.96 in 10.0 mi SSW 8.1 mph - N/A   Clear
5:53 AM 64.0 °F - 55.0 °F 73% 29.97 in 10.0 mi SSW 6.9 mph - N/A   Clear
6:53 AM 63.0 °F - 55.0 °F 75% 30.00 in 10.0 mi West 3.5 mph - N/A   Clear
7:53 AM 61.0 °F - 55.9 °F 83% 30.02 in 10.0 mi Calm Calm - N/A   Clear
8:53 AM 69.1 °F - 55.9 °F 63% 30.01 in 10.0 mi SSW 5.8 mph - N/A   Clear
9:53 AM 73.9 °F - 55.9 °F 53% 30.01 in 10.0 mi SW 10.4 mph - N/A   Clear
10:53 AM 79.0 °F - 57.0 °F 47% 30.01 in 10.0 mi SSW 10.4 mph - N/A   Clear
11:53 AM 82.0 °F 81.6 °F 55.9 °F 41% 30.01 in 10.0 mi WSW 10.4 mph - N/A   Clear
12:53 PM 86.0 °F 84.7 °F 55.9 °F 36% 29.99 in 10.0 mi WSW 10.4 mph - N/A   Clear
1:53 PM 86.0 °F 85.0 °F 57.9 °F 38% 29.98 in 10.0 mi WSW 6.9 mph - N/A   Clear
2:53 PM 87.1 °F 86.5 °F 59.0 °F 39% 29.95 in 10.0 mi Variable 4.6 mph - N/A   Clear
3:53 PM 89.1 °F 87.1 °F 55.0 °F 31% 29.91 in 10.0 mi South 11.5 mph - N/A   Clear
4:53 PM 87.1 °F 85.9 °F 57.0 °F 36% 29.91 in 10.0 mi South 10.4 mph - N/A   Clear
5:53 PM 87.1 °F 85.9 °F 57.0 °F 36% 29.91 in 10.0 mi SW 8.1 mph - N/A   Clear
6:53 PM 82.9 °F 82.4 °F 57.0 °F 41% 29.92 in 10.0 mi SSW 5.8 mph - N/A   Clear
7:53 PM 79.0 °F - 57.9 °F 48% 29.94 in 10.0 mi South 6.9 mph - N/A   Clear
8:53 PM 75.9 °F - 59.0 °F 56% 29.94 in 10.0 mi South 6.9 mph - N/A   Clear
9:53 PM 75.0 °F - 60.1 °F 60% 29.95 in 10.0 mi South 6.9 mph - N/A   Clear
10:53 PM 73.9 °F - 59.0 °F 59% 29.94 in 10.0 mi SSW 11.5 mph - N/A   Clear
11:53 PM 72.0 °F - 59.0 °F 64% 29.95 in 10.0 mi SSW 9.2 mph - N/A   Clear